Location: Bishopstone
(51.0167°N, 1.9000°W)
Time: 03:51:58
(UTC+00:00)

Cosmos 2056 Rocket - Pass Details

Date: 16 September 2019
Orbit: 742 x 800 km, 74.0° (Epoch: 17 October)

Event Time Altitude Azimuth Distance (km) Brightness Sun altitude
Rises 21:00:23 0° 207° (SSW) 3,296 6.7 -24.0°
Reaches altitude 10° 21:02:47 10° 209° (SSW) 2,371 5.9 -24.3°
Maximum altitude 21:08:12 78° 295° (WNW) 824 3.6 -24.9°
Drops below altitude 10° 21:13:39 10° 23° (NNE) 2,376 6.2 -25.6°
Sets 21:16:03 0° 24° (NNE) 3,304 7.0 -25.9°
